Date String (YYYY-MM-DD hh:mm:ss) UTC,Instrument flags,Ambient pressure (hPa),Sample flow (lpm),Bypass flow (lpm),Sample temperature (°C),Ambient temperature (°C),ASC tube jacket temperature (°C),LED temperature (°C),Box temperature (°C),Sample RH (%),Span deviation,Mass concentration (μg/m³),Mass concentration (μg/m³),Mass concentration (μg/m³)
DateTimeUTC,F1_M11,P_M11,Q1_M11,Q2_M11,T1_M11,T2_M11,T3_M11,T4_M11,T5_M11,U1_M11,ZSPAN_M11,X0_M11,X2_M11,X1_M11
2022-10-27 15:00:00,,0824.1,5.01,0.00,24.9,23.3,00.0,33.7,26.8,19.7,0000.0,0003.51,0001.58,0001.28
2022-10-27 15:01:00,,0824.1,5.00,0.00,24.9,23.3,00.0,33.7,26.8,19.7,0000.0,0003.02,0001.63,0001.28
2022-10-27 15:02:00,,0824.2,5.00,0.00,24.9,23.3,00.0,33.7,26.8,19.8,0000.0,0004.11,0001.69,0001.29
2022-10-27 15:03:00,,0824.2,4.99,0.00,24.9,23.3,00.0,33.7,26.8,19.8,0000.0,0004.13,0001.70,0001.31
2022-10-27 15:04:00,,0824.2,4.99,0.00,24.9,23.3,00.0,33.7,26.8,19.7,0000.0,0004.22,0001.74,0001.32
2022-10-27 15:05:00,,0824.2,5.00,0.00,24.9,23.3,00.0,33.7,26.8,19.7,0000.0,0004.34,0001.79,0001.33
2022-10-27 15:06:00,,0824.2,4.99,0.00,24.9,23.3,00.0,33.7,26.8,19.8,0000.0,0004.42,0001.82,0001.34
2022-10-27 15:07:00,,0824.3,5.00,0.00,24.9,23.3,00.0,33.7,26.8,19.8,0000.0,0005.16,0001.89,0001.37
2022-10-27 15:08:00,,0824.3,5.00,0.00,24.9,23.3,00.0,33.7,26.8,19.8,0000.0,0005.25,0001.93,0001.39
2022-10-27 15:09:00,,0824.3,5.00,0.00,24.9,23.3,00.0,33.7,26.8,19.8,0000.0,0005.10,0001.88,0001.39
2022-10-27 15:10:00,,0824.2,5.00,0.00,24.9,23.3,00.0,33.7,26.8,19.9,0000.0,0005.15,0001.91,0001.40
2022-10-27 15:11:00,,0824.5,5.00,0.00,24.9,23.3,00.0,33.7,26.8,20.0,0000.0,0005.45,0001.97,0001.41
2022-10-27 15:12:00,,0824.4,5.00,0.00,24.9,23.3,00.0,33.7,26.8,19.9,0000.0,0005.17,0001.99,0001.42
2022-10-27 15:13:00,,0824.2,5.00,0.00,24.9,23.3,00.0,33.7,26.8,19.9,0000.0,0004.21,0001.96,0001.43
2022-10-27 15:14:00,,0824.3,5.00,0.00,24.9,23.3,00.0,33.7,26.8,19.9,0000.0,0004.80,0001.99,0001.44
2022-10-27 15:15:00,,0824.3,5.00,0.00,24.9,23.3,00.0,33.7,26.8,20.0,0000.0,0006.91,0002.04,0001.46
2022-10-27 15:16:00,,0824.3,5.00,0.00,24.9,23.3,00.0,33.7,26.8,20.0,0000.0,0007.99,0002.07,0001.47
2022-10-27 15:17:00,,0824.3,5.00,0.00,24.9,23.3,00.0,33.7,26.8,20.0,0000.0,0008.15,0002.12,0001.49
2022-10-27 15:18:00,,0824.3,5.00,0.00,24.9,23.3,00.0,33.7,26.8,20.1,0000.0,0008.18,0002.14,0001.49
2022-10-27 15:19:00,,0824.3,5.00,0.00,24.9,23.3,00.0,33.7,26.8,20.1,0000.0,0008.31,0002.21,0001.49
2022-10-27 15:20:00,,0824.3,5.00,0.00,24.9,23.3,00.0,33.7,26.8,20.0,0000.0,0008.39,0002.29,0001.50
2022-10-27 15:21:00,,0824.4,5.00,0.00,24.9,23.3,00.0,33.7,26.8,20.0,0000.0,0008.38,0002.28,0001.51
2022-10-27 15:22:00,,0824.4,5.00,0.00,24.9,23.3,00.0,33.7,26.8,20.1,0000.0,0008.38,0002.28,0001.51
2022-10-27 15:23:00,,0824.5,4.99,0.00,24.9,23.3,00.0,33.7,26.8,20.1,0000.0,0008.35,0002.26,0001.51
2022-10-27 15:24:00,,0824.5,4.99,0.00,24.9,23.3,00.0,33.7,26.8,20.1,0000.0,0008.30,0002.26,0001.52
2022-10-27 15:25:00,,0824.4,4.99,0.00,24.9,23.3,00.0,33.7,26.8,20.1,0000.0,0008.36,0002.25,0001.52
2022-10-27 15:26:00,,0824.4,5.00,0.00,24.9,23.3,00.0,33.7,26.8,20.1,0000.0,0007.58,0002.21,0001.50
2022-10-27 15:27:00,,0824.4,5.00,0.00,24.9,23.3,00.0,33.7,26.8,20.1,0000.0,0006.70,0002.22,0001.49
2022-10-27 15:28:00,,0824.4,5.01,0.00,24.9,23.3,00.0,33.7,26.8,20.1,0000.0,0006.00,0002.17,0001.47
2022-10-27 15:29:00,,0824.4,5.01,0.00,24.9,23.3,00.0,33.7,26.8,20.2,0000.0,0005.34,0002.09,0001.45
2022-10-27 15:30:00,,0824.5,5.00,0.00,24.8,23.2,00.0,33.7,26.7,20.2,0000.0,0004.88,0002.00,0001.44
2022-10-27 15:31:00,,0824.4,5.00,0.00,24.8,23.2,00.0,33.7,26.8,20.2,0000.0,0004.77,0001.94,0001.43
2022-10-27 15:32:00,,0824.6,5.00,0.00,24.8,23.2,00.0,33.7,26.8,20.3,0000.0,0004.78,0001.92,0001.42
2022-10-27 15:33:00,,0824.4,5.00,0.00,24.8,23.2,00.0,33.7,26.8,20.3,0000.0,0004.67,0001.90,0001.42
2022-10-27 15:34:00,,0824.5,4.99,0.00,24.8,23.2,00.0,33.7,26.8,20.1,0000.0,0005.34,0001.87,0001.40
2022-10-27 15:35:00,,0824.5,5.00,0.00,24.8,23.3,00.0,33.7,26.8,20.2,0000.0,0005.41,0001.88,0001.37
2022-10-27 15:36:00,,0824.5,5.00,0.00,24.8,23.3,00.0,33.7,26.8,20.1,0000.0,0005.40,0001.93,0001.35
2022-10-27 15:37:00,,0824.5,5.00,0.00,24.9,23.3,00.0,33.6,26.8,20.0,0000.0,0004.24,0001.93,0001.35
2022-10-27 15:38:00,,0824.5,4.99,0.00,24.9,23.3,00.0,33.6,26.8,19.9,0000.0,0004.21,0001.91,0001.34
2022-10-27 15:39:00,,0824.4,5.01,0.00,24.9,23.3,00.0,33.7,26.8,19.9,0000.0,0004.27,0001.92,0001.34
2022-10-27 15:40:00,,0824.8,5.00,0.00,24.9,23.4,00.0,33.7,26.8,19.8,0000.0,0004.31,0001.93,0001.34
2022-10-27 15:41:00,,0824.8,5.01,0.00,24.9,23.4,00.0,33.7,26.9,20.0,0000.0,0004.38,0001.99,0001.34
2022-10-27 15:42:00,,0824.6,5.01,0.00,24.9,23.4,00.0,33.6,26.9,19.8,0000.0,0004.56,0002.00,0001.33
2022-10-27 15:43:00,,0824.8,5.00,0.00,24.9,23.4,00.0,33.6,26.9,19.7,0000.0,0004.85,0001.98,0001.32
2022-10-27 15:44:00,,0824.7,5.00,0.00,24.9,23.4,00.0,33.7,26.9,19.6,0000.0,0004.85,0001.99,0001.32
2022-10-27 15:45:00,,0824.9,4.99,0.00,24.9,23.4,00.0,33.7,26.9,19.5,0000.0,0004.07,0001.98,0001.33
2022-10-27 15:46:00,,0824.6,5.00,0.00,24.9,23.4,00.0,33.7,26.9,19.4,0000.0,0004.02,0001.98,0001.32
2022-10-27 15:47:00,,0824.6,5.00,0.00,24.9,23.4,00.0,33.7,26.9,19.4,0000.0,0003.87,0001.93,0001.33
2022-10-27 15:48:00,,0824.7,5.00,0.00,24.9,23.4,00.0,33.7,26.9,19.6,0000.0,0003.87,0001.92,0001.33
2022-10-27 15:49:00,,0824.6,5.00,0.00,24.9,23.4,00.0,33.7,26.9,19.8,0000.0,0003.90,0001.92,0001.33
2022-10-27 15:50:00,,0824.6,5.00,0.00,24.9,23.4,00.0,33.7,26.9,19.9,0000.0,0003.85,0001.93,0001.33
2022-10-27 15:51:00,,0824.6,4.99,0.00,24.9,23.4,00.0,33.7,26.8,20.0,0000.0,0003.86,0001.90,0001.32
2022-10-27 15:52:00,,0824.6,4.99,0.00,24.9,23.4,00.0,33.7,26.9,20.0,0000.0,0003.81,0001.85,0001.30
2022-10-27 15:53:00,,0824.6,5.00,0.00,24.9,23.5,00.0,33.7,26.9,20.1,0000.0,0003.87,0001.83,0001.29
2022-10-27 15:54:00,,0824.6,5.01,0.00,24.9,23.5,00.0,33.7,26.9,20.2,0000.0,0003.42,0001.83,0001.29
2022-10-27 15:55:00,,0824.6,5.00,0.00,24.9,23.5,00.0,33.7,26.9,20.1,0000.0,0003.50,0001.85,0001.30
2022-10-27 15:56:00,,0824.6,5.01,0.00,25.0,23.5,00.0,33.7,27.0,20.2,0000.0,0003.50,0001.84,0001.29
2022-10-27 15:57:00,,0824.7,5.01,0.00,25.0,23.5,00.0,33.7,27.0,20.2,0000.0,0003.51,0001.84,0001.29
2022-10-27 15:58:00,,0824.7,5.00,0.00,25.0,23.5,00.0,33.7,27.0,19.8,0000.0,0003.53,0001.81,0001.29
2022-10-27 15:59:00,,0824.7,5.00,0.00,25.0,23.5,00.0,33.7,27.0,19.7,0000.0,0003.46,0001.78,0001.28
